contact:dominique.lefevre@mio.osupytheas.fr, maurice.libes@osupytheas.fr, didier.mallarino@osupytheas.fr
Project:EMSO http://www.emso-fr.org/EMSO-France
Depth: 2436.0 m
Title:EMSO Ligure Ouest : Data MII capteur MICROCAT
DateTime_Computer,Latitude,Longitude,Temperature,Conductivity,Pressure,DateTime_Instrument
DateTime_Computer,Latitude,Longitude,degC,S m-1,dbar,DateTime_Instrument
2022-06-20T00:23:08Z,42.805,6.029,13.3006,4.60037,2470.646,2022-6-20T02:24:52Z
2022-06-20T00:26:12Z,42.805,6.029,13.3002,4.60038,2470.646,2022-6-20T02:27:55Z
2022-06-20T00:29:15Z,42.805,6.029,13.3004,4.60041,2470.646,2022-6-20T02:30:59Z
2022-06-20T00:32:18Z,42.805,6.029,13.3008,4.60040,2470.684,2022-6-20T02:34:02Z
2022-06-20T00:35:21Z,42.805,6.029,13.3006,4.60040,2470.646,2022-6-20T02:37:05Z
2022-06-20T00:38:24Z,42.805,6.029,13.3004,4.60037,2470.646,2022-6-20T02:40:08Z
2022-06-20T00:41:27Z,42.805,6.029,13.3004,4.60036,2470.684,2022-6-20T02:43:11Z
2022-06-20T00:44:30Z,42.805,6.029,13.3003,4.60039,2470.661,2022-6-20T02:46:14Z
2022-06-20T00:47:33Z,42.805,6.029,13.3003,4.60039,2470.661,2022-6-20T02:49:17Z
2022-06-20T00:50:37Z,42.805,6.029,13.3009,4.60040,2470.646,2022-6-20T02:52:20Z
2022-06-20T00:53:40Z,42.805,6.029,13.3005,4.60038,2470.656,2022-6-20T02:55:24Z
2022-06-20T00:56:43Z,42.805,6.029,13.3009,4.60040,2470.614,2022-6-20T02:58:27Z
2022-06-20T00:59:46Z,42.805,6.029,13.3008,4.60055,2470.624,2022-6-20T03:01:30Z
2022-06-20T01:02:49Z,42.805,6.029,13.3001,4.60037,2470.646,2022-6-20T03:04:33Z
2022-06-20T01:05:52Z,42.805,6.029,13.3006,4.60037,2470.661,2022-6-20T03:07:36Z
2022-06-20T01:08:55Z,42.805,6.029,13.3006,4.60037,2470.661,2022-6-20T03:10:39Z
2022-06-20T01:11:58Z,42.805,6.029,13.3008,4.60039,2470.646,2022-6-20T03:13:42Z
2022-06-20T01:15:01Z,42.805,6.029,13.3007,4.60036,2470.646,2022-6-20T03:16:45Z
2022-06-20T01:18:05Z,42.805,6.029,13.3005,4.60037,2470.646,2022-6-20T03:19:48Z
2022-06-20T01:21:08Z,42.805,6.029,13.2999,4.60042,2470.646,2022-6-20T03:22:52Z
2022-06-20T01:24:11Z,42.805,6.029,13.3006,4.60057,2470.646,2022-6-20T03:25:55Z
2022-06-20T01:27:14Z,42.805,6.029,13.3007,4.60044,2470.67,2022-6-20T03:28:58Z
2022-06-20T01:30:17Z,42.805,6.029,13.3005,4.60039,2470.646,2022-6-20T03:32:01Z
2022-06-20T01:33:20Z,42.805,6.029,13.3009,4.60038,2470.61,2022-6-20T03:35:04Z
2022-06-20T01:36:23Z,42.805,6.029,13.2998,4.60038,2470.637,2022-6-20T03:38:07Z
2022-06-20T01:39:26Z,42.805,6.029,13.3006,4.60044,2470.646,2022-6-20T03:41:10Z
2022-06-20T01:42:30Z,42.805,6.029,13.3009,4.60039,2470.67,2022-6-20T03:44:13Z
2022-06-20T01:45:33Z,42.805,6.029,13.3006,4.60039,2470.624,2022-6-20T03:47:17Z
2022-06-20T01:48:36Z,42.805,6.029,13.3007,4.60036,2470.624,2022-6-20T03:50:20Z
2022-06-20T01:51:39Z,42.805,6.029,13.3006,4.60036,2470.637,2022-6-20T03:53:23Z
2022-06-20T01:54:42Z,42.805,6.029,13.3004,4.60036,2470.614,2022-6-20T03:56:26Z
2022-06-20T01:57:45Z,42.805,6.029,13.3002,4.60038,2470.637,2022-6-20T03:59:29Z
2022-06-20T02:00:48Z,42.805,6.029,13.3009,4.60036,2470.6,2022-6-20T04:02:32Z
2022-06-20T02:03:51Z,42.805,6.029,13.3001,4.60037,2470.637,2022-6-20T04:05:35Z
2022-06-20T02:06:55Z,42.805,6.029,13.3004,4.60036,2470.624,2022-6-20T04:08:38Z
2022-06-20T02:09:58Z,42.805,6.029,13.3006,4.60036,2470.614,2022-6-20T04:11:42Z
2022-06-20T02:13:01Z,42.805,6.029,13.3003,4.60035,2470.624,2022-6-20T04:14:45Z
2022-06-20T02:16:04Z,42.805,6.029,13.3008,4.60036,2470.6,2022-6-20T04:17:48Z
2022-06-20T02:19:07Z,42.805,6.029,13.3005,4.60035,2470.637,2022-6-20T04:20:51Z
2022-06-20T02:22:10Z,42.805,6.029,13.3007,4.60036,2470.624,2022-6-20T04:23:54Z
2022-06-20T02:25:13Z,42.805,6.029,13.3002,4.60036,2470.6,2022-6-20T04:26:57Z
2022-06-20T02:28:16Z,42.805,6.029,13.3001,4.60036,2470.6,2022-6-20T04:30:00Z
2022-06-20T02:31:20Z,42.805,6.029,13.3004,4.60036,2470.637,2022-6-20T04:33:03Z
2022-06-20T02:34:23Z,42.805,6.029,13.3006,4.60036,2470.637,2022-6-20T04:36:07Z
2022-06-20T02:37:26Z,42.805,6.029,13.3001,4.60039,2470.586,2022-6-20T04:39:10Z
2022-06-20T02:40:29Z,42.805,6.029,13.3006,4.60039,2470.6,2022-6-20T04:42:13Z
2022-06-20T02:43:32Z,42.805,6.029,13.3007,4.60036,2470.637,2022-6-20T04:45:16Z
2022-06-20T02:46:35Z,42.805,6.029,13.3005,4.60037,2470.614,2022-6-20T04:48:19Z
2022-06-20T02:49:38Z,42.805,6.029,13.3004,4.60036,2470.6,2022-6-20T04:51:22Z
2022-06-20T02:52:41Z,42.805,6.029,13.3007,4.60039,2470.624,2022-6-20T04:54:25Z
2022-06-20T02:55:44Z,42.805,6.029,13.3008,4.60044,2470.6,2022-6-20T04:57:28Z
2022-06-20T02:58:48Z,42.805,6.029,13.3011,4.60036,2470.614,2022-6-20T05:00:31Z
2022-06-20T03:01:51Z,42.805,6.029,13.3006,4.60046,2470.6,2022-6-20T05:03:35Z
2022-06-20T03:04:54Z,42.805,6.029,13.3004,4.60039,2470.614,2022-6-20T05:06:38Z
2022-06-20T03:07:57Z,42.805,6.029,13.3006,4.60036,2470.6,2022-6-20T05:09:41Z
2022-06-20T03:11:00Z,42.805,6.029,13.3006,4.60036,2470.637,2022-6-20T05:12:44Z
2022-06-20T03:14:03Z,42.805,6.029,13.3009,4.60039,2470.591,2022-6-20T05:15:47Z
2022-06-20T03:17:06Z,42.805,6.029,13.3008,4.60040,2470.614,2022-6-20T05:18:50Z
2022-06-20T03:20:09Z,42.805,6.029,13.3008,4.60038,2470.577,2022-6-20T05:21:53Z
2022-06-20T03:23:13Z,42.805,6.029,13.3005,4.60039,2470.567,2022-6-20T05:24:56Z
2022-06-20T03:26:16Z,42.805,6.029,13.3002,4.60043,2470.6,2022-6-20T05:28:00Z
2022-06-20T03:29:19Z,42.805,6.029,13.3009,4.60039,2470.6,2022-6-20T05:31:03Z
2022-06-20T03:32:22Z,42.805,6.029,13.3008,4.60036,2470.6,2022-6-20T05:34:06Z
2022-06-20T03:35:25Z,42.805,6.029,13.3006,4.60037,2470.591,2022-6-20T05:37:09Z
2022-06-20T03:38:28Z,42.805,6.029,13.3004,4.60036,2470.591,2022-6-20T05:40:12Z
2022-06-20T03:41:31Z,42.805,6.029,13.3004,4.60038,2470.577,2022-6-20T05:43:15Z
2022-06-20T03:44:34Z,42.805,6.029,13.3006,4.60038,2470.591,2022-6-20T05:46:18Z
2022-06-20T03:47:38Z,42.805,6.029,13.3006,4.60039,2470.577,2022-6-20T05:49:21Z
2022-06-20T03:50:41Z,42.805,6.029,13.3006,4.60055,2470.53,2022-6-20T05:52:25Z
2022-06-20T03:53:44Z,42.805,6.029,13.3004,4.60040,2470.577,2022-6-20T05:55:28Z
2022-06-20T03:56:47Z,42.805,6.029,13.3007,4.60038,2470.577,2022-6-20T05:58:31Z
2022-06-20T03:59:50Z,42.805,6.029,13.3002,4.60038,2470.591,2022-6-20T06:01:34Z
2022-06-20T04:02:53Z,42.805,6.029,13.3005,4.60038,2470.577,2022-6-20T06:04:37Z
2022-06-20T04:05:56Z,42.805,6.029,13.3007,4.60039,2470.567,2022-6-20T06:07:40Z
2022-06-20T04:08:59Z,42.805,6.029,13.3008,4.60039,2470.577,2022-6-20T06:10:43Z
2022-06-20T04:12:03Z,42.805,6.029,13.3005,4.60043,2470.553,2022-6-20T06:13:46Z
2022-06-20T04:15:06Z,42.805,6.029,13.3006,4.60039,2470.577,2022-6-20T06:16:50Z
2022-06-20T04:18:09Z,42.805,6.029,13.3009,4.60042,2470.563,2022-6-20T06:19:53Z
2022-06-20T04:21:12Z,42.805,6.029,13.3004,4.60038,2470.53,2022-6-20T06:22:56Z
2022-06-20T04:24:15Z,42.805,6.029,13.3006,4.60039,2470.553,2022-6-20T06:25:59Z
2022-06-20T04:27:18Z,42.805,6.029,13.3005,4.60039,2470.53,2022-6-20T06:29:02Z
2022-06-20T04:30:21Z,42.805,6.029,13.3006,4.60039,2470.567,2022-6-20T06:32:05Z
2022-06-20T04:33:24Z,42.805,6.029,13.3010,4.60044,2470.53,2022-6-20T06:35:08Z
2022-06-20T04:36:27Z,42.805,6.029,13.3006,4.60039,2470.591,2022-6-20T06:38:11Z
2022-06-20T04:39:31Z,42.805,6.029,13.3008,4.60039,2470.507,2022-6-20T06:41:15Z
2022-06-20T04:42:34Z,42.805,6.029,13.3004,4.60038,2470.544,2022-6-20T06:44:18Z
2022-06-20T04:45:37Z,42.805,6.029,13.3008,4.60038,2470.553,2022-6-20T06:47:21Z
2022-06-20T04:48:40Z,42.805,6.029,13.3006,4.60043,2470.544,2022-6-20T06:50:24Z
2022-06-20T04:51:43Z,42.805,6.029,13.3006,4.60039,2470.53,2022-6-20T06:53:27Z
2022-06-20T04:54:46Z,42.805,6.029,13.3005,4.60041,2470.53,2022-6-20T06:56:30Z
2022-06-20T04:57:49Z,42.805,6.029,13.3006,4.60039,2470.553,2022-6-20T06:59:33Z
2022-06-20T05:00:52Z,42.805,6.029,13.3005,4.60040,2470.553,2022-6-20T07:02:36Z
2022-06-20T05:03:56Z,42.805,6.029,13.3006,4.60060,2470.567,2022-6-20T07:05:39Z
2022-06-20T05:06:59Z,42.805,6.029,13.3004,4.60041,2470.553,2022-6-20T07:08:43Z
2022-06-20T05:10:02Z,42.805,6.029,13.3004,4.60038,2470.553,2022-6-20T07:11:46Z
2022-06-20T05:13:05Z,42.805,6.029,13.3006,4.60039,2470.53,2022-6-20T07:14:49Z
2022-06-20T05:16:08Z,42.805,6.029,13.3006,4.60042,2470.53,2022-6-20T07:17:52Z
2022-06-20T05:19:11Z,42.805,6.029,13.3005,4.60039,2470.553,2022-6-20T07:20:55Z
2022-06-20T05:22:14Z,42.805,6.029,13.3009,4.60042,2470.507,2022-6-20T07:23:58Z
2022-06-20T05:25:17Z,42.805,6.029,13.3007,4.60040,2470.53,2022-6-20T07:27:01Z
2022-06-20T05:28:21Z,42.805,6.029,13.3008,4.60039,2470.544,2022-6-20T07:30:04Z
2022-06-20T05:31:24Z,42.805,6.029,13.3005,4.60042,2470.53,2022-6-20T07:33:08Z
2022-06-20T05:34:27Z,42.805,6.029,13.3009,4.60043,2470.507,2022-6-20T07:36:11Z
2022-06-20T05:37:30Z,42.805,6.029,13.3009,4.60052,2470.507,2022-6-20T07:39:14Z
2022-06-20T05:40:33Z,42.805,6.029,13.3008,4.60039,2470.507,2022-6-20T07:42:17Z
2022-06-20T05:43:36Z,42.805,6.029,13.3006,4.60040,2470.483,2022-6-20T07:45:20Z
2022-06-20T05:46:39Z,42.805,6.029,13.3011,4.60041,2470.507,2022-6-20T07:48:23Z
2022-06-20T05:49:42Z,42.805,6.029,13.3008,4.60040,2470.52,2022-6-20T07:51:26Z
2022-06-20T05:52:46Z,42.805,6.029,13.3007,4.60046,2470.483,2022-6-20T07:54:29Z
2022-06-20T05:55:49Z,42.805,6.029,13.3008,4.60041,2470.507,2022-6-20T07:57:33Z
2022-06-20T05:58:52Z,42.805,6.029,13.3006,4.60045,2470.507,2022-6-20T08:00:36Z
2022-06-20T06:01:55Z,42.805,6.029,13.3010,4.60040,2470.507,2022-6-20T08:03:39Z
2022-06-20T06:04:58Z,42.805,6.029,13.3003,4.60042,2470.483,2022-6-20T08:06:42Z
2022-06-20T06:08:01Z,42.805,6.029,13.3006,4.60043,2470.52,2022-6-20T08:09:45Z
2022-06-20T06:11:04Z,42.805,6.029,13.3012,4.60047,2470.497,2022-6-20T08:12:48Z
2022-06-20T06:14:07Z,42.805,6.029,13.3012,4.60065,2470.507,2022-6-20T08:15:51Z
2022-06-20T06:17:11Z,42.805,6.029,13.3009,4.60047,2470.507,2022-6-20T08:18:54Z
2022-06-20T06:20:14Z,42.805,6.029,13.3015,4.60042,2470.483,2022-6-20T08:21:58Z
2022-06-20T06:23:17Z,42.805,6.029,13.3011,4.60041,2470.53,2022-6-20T08:25:01Z
2022-06-20T06:26:20Z,42.805,6.029,13.3009,4.60040,2470.544,2022-6-20T08:28:04Z
2022-06-20T06:29:23Z,42.805,6.029,13.3012,4.60044,2470.53,2022-6-20T08:31:07Z
2022-06-20T06:32:26Z,42.805,6.029,13.3007,4.60046,2470.497,2022-6-20T08:34:10Z
2022-06-20T06:35:29Z,42.805,6.029,13.3005,4.60044,2470.507,2022-6-20T08:37:13Z
2022-06-20T06:38:32Z,42.805,6.029,13.3008,4.60049,2470.507,2022-6-20T08:40:16Z
2022-06-20T06:41:35Z,42.805,6.029,13.3004,4.60043,2470.52,2022-6-20T08:43:19Z
2022-06-20T06:44:39Z,42.805,6.029,13.3009,4.60043,2470.52,2022-6-20T08:46:22Z
2022-06-20T06:47:42Z,42.805,6.029,13.3011,4.60054,2470.507,2022-6-20T08:49:26Z
2022-06-20T06:50:45Z,42.805,6.029,13.3011,4.60046,2470.483,2022-6-20T08:52:29Z
2022-06-20T06:53:48Z,42.805,6.029,13.3015,4.60051,2470.497,2022-6-20T08:55:32Z
2022-06-20T06:56:51Z,42.805,6.029,13.3016,4.60052,2470.52,2022-6-20T08:58:35Z
2022-06-20T06:59:54Z,42.805,6.029,13.3006,4.60047,2470.53,2022-6-20T09:01:38Z
2022-06-20T07:02:57Z,42.805,6.029,13.3011,4.60046,2470.483,2022-6-20T09:04:41Z
2022-06-20T07:06:00Z,42.805,6.029,13.3007,4.60049,2470.52,2022-6-20T09:07:44Z
2022-06-20T07:09:04Z,42.805,6.029,13.3011,4.60042,2470.483,2022-6-20T09:10:47Z
2022-06-20T07:12:07Z,42.805,6.029,13.3007,4.60041,2470.497,2022-6-20T09:13:51Z
2022-06-20T07:15:10Z,42.805,6.029,13.3005,4.60042,2470.46,2022-6-20T09:16:54Z
2022-06-20T07:18:13Z,42.805,6.029,13.3011,4.60042,2470.52,2022-6-20T09:19:57Z
2022-06-20T07:21:16Z,42.805,6.029,13.3015,4.60055,2470.507,2022-6-20T09:23:00Z
2022-06-20T07:24:19Z,42.805,6.029,13.3004,4.60050,2470.497,2022-6-20T09:26:03Z
2022-06-20T07:27:22Z,42.805,6.029,13.3008,4.60042,2470.507,2022-6-20T09:29:06Z
2022-06-20T07:30:25Z,42.805,6.029,13.3009,4.60044,2470.507,2022-6-20T09:32:09Z
2022-06-20T07:33:29Z,42.805,6.029,13.3009,4.60053,2470.483,2022-6-20T09:35:12Z
2022-06-20T07:36:32Z,42.805,6.029,13.3009,4.60044,2470.483,2022-6-20T09:38:16Z
2022-06-20T07:39:35Z,42.805,6.029,13.3006,4.60053,2470.52,2022-6-20T09:41:19Z
2022-06-20T07:42:38Z,42.805,6.029,13.3011,4.60047,2470.483,2022-6-20T09:44:22Z
2022-06-20T07:45:41Z,42.805,6.029,13.3009,4.60043,2470.507,2022-6-20T09:47:25Z
2022-06-20T07:48:44Z,42.805,6.029,13.3008,4.60042,2470.507,2022-6-20T09:50:28Z
2022-06-20T07:51:47Z,42.805,6.029,13.3004,4.60046,2470.507,2022-6-20T09:53:31Z
2022-06-20T07:54:50Z,42.805,6.029,13.3006,4.60043,2470.507,2022-6-20T09:56:34Z
2022-06-20T07:57:54Z,42.805,6.029,13.3006,4.60046,2470.483,2022-6-20T09:59:37Z
2022-06-20T08:00:57Z,42.805,6.029,13.3004,4.60042,2470.507,2022-6-20T10:02:41Z
2022-06-20T08:04:00Z,42.805,6.029,13.3006,4.60043,2470.483,2022-6-20T10:05:44Z
2022-06-20T08:07:03Z,42.805,6.029,13.3005,4.60044,2470.493,2022-6-20T10:08:47Z
2022-06-20T08:10:06Z,42.805,6.029,13.3006,4.60049,2470.52,2022-6-20T10:11:50Z
2022-06-20T08:13:09Z,42.805,6.029,13.3006,4.60050,2470.516,2022-6-20T10:14:53Z
2022-06-20T08:16:12Z,42.805,6.029,13.3008,4.60052,2470.507,2022-6-20T10:17:56Z
2022-06-20T08:19:15Z,42.805,6.029,13.3005,4.60044,2470.53,2022-6-20T10:20:59Z
2022-06-20T08:22:18Z,42.805,6.029,13.3008,4.60059,2470.507,2022-6-20T10:24:02Z
2022-06-20T08:25:22Z,42.805,6.029,13.3006,4.60060,2470.544,2022-6-20T10:27:06Z
2022-06-20T08:28:25Z,42.805,6.029,13.3004,4.60059,2470.52,2022-6-20T10:30:09Z
2022-06-20T08:31:28Z,42.805,6.029,13.3008,4.60059,2470.483,2022-6-20T10:33:12Z
2022-06-20T08:34:31Z,42.805,6.029,13.3005,4.60043,2470.53,2022-6-20T10:36:15Z
2022-06-20T08:37:34Z,42.805,6.029,13.3004,4.60044,2470.53,2022-6-20T10:39:18Z
2022-06-20T08:40:37Z,42.805,6.029,13.3006,4.60057,2470.507,2022-6-20T10:42:21Z
2022-06-20T08:43:40Z,42.805,6.029,13.3009,4.60046,2470.53,2022-6-20T10:45:24Z
2022-06-20T08:46:44Z,42.805,6.029,13.3003,4.60044,2470.544,2022-6-20T10:48:27Z
2022-06-20T08:49:47Z,42.805,6.029,13.3006,4.60054,2470.567,2022-6-20T10:51:31Z
2022-06-20T08:52:50Z,42.805,6.029,13.3010,4.60052,2470.553,2022-6-20T10:54:34Z
2022-06-20T08:55:53Z,42.805,6.029,13.3005,4.60060,2470.544,2022-6-20T10:57:37Z
2022-06-20T08:58:56Z,42.805,6.029,13.3004,4.60049,2470.567,2022-6-20T11:00:40Z
2022-06-20T09:01:59Z,42.805,6.029,13.3007,4.60049,2470.53,2022-6-20T11:03:43Z
2022-06-20T09:05:02Z,42.805,6.029,13.3004,4.60063,2470.567,2022-6-20T11:06:46Z
2022-06-20T09:08:05Z,42.805,6.029,13.3006,4.60055,2470.53,2022-6-20T11:09:49Z
2022-06-20T09:11:09Z,42.805,6.029,13.3005,4.60055,2470.53,2022-6-20T11:12:52Z
2022-06-20T09:14:12Z,42.805,6.029,13.3006,4.60051,2470.567,2022-6-20T11:15:56Z
2022-06-20T09:17:15Z,42.805,6.029,13.3007,4.60054,2470.553,2022-6-20T11:18:59Z
2022-06-20T09:20:18Z,42.805,6.029,13.3009,4.60052,2470.553,2022-6-20T11:22:02Z
2022-06-20T09:23:21Z,42.805,6.029,13.3006,4.60047,2470.53,2022-6-20T11:25:05Z
2022-06-20T09:26:24Z,42.805,6.029,13.3004,4.60050,2470.553,2022-6-20T11:28:08Z
2022-06-20T09:29:27Z,42.805,6.029,13.3008,4.60046,2470.53,2022-6-20T11:31:11Z
2022-06-20T09:32:30Z,42.805,6.029,13.3004,4.60046,2470.53,2022-6-20T11:34:14Z
2022-06-20T09:35:34Z,42.805,6.029,13.3005,4.60048,2470.567,2022-6-20T11:37:17Z
2022-06-20T09:38:37Z,42.805,6.029,13.3006,4.60045,2470.544,2022-6-20T11:40:21Z
2022-06-20T09:41:40Z,42.805,6.029,13.3006,4.60045,2470.553,2022-6-20T11:43:24Z
2022-06-20T09:44:43Z,42.805,6.029,13.3009,4.60044,2470.544,2022-6-20T11:46:27Z
2022-06-20T09:47:46Z,42.805,6.029,13.3005,4.60044,2470.577,2022-6-20T11:49:30Z
2022-06-20T09:50:49Z,42.805,6.029,13.3006,4.60044,2470.591,2022-6-20T11:52:33Z
2022-06-20T09:53:52Z,42.805,6.029,13.3006,4.60047,2470.553,2022-6-20T11:55:36Z
2022-06-20T09:56:55Z,42.805,6.029,13.3009,4.60046,2470.53,2022-6-20T11:58:39Z
2022-06-20T09:59:59Z,42.805,6.029,13.3007,4.60046,2470.567,2022-6-20T12:01:42Z
2022-06-20T10:03:02Z,42.805,6.029,13.3004,4.60047,2470.553,2022-6-20T12:04:46Z
2022-06-20T10:06:05Z,42.805,6.029,13.3009,4.60047,2470.567,2022-6-20T12:07:49Z
2022-06-20T10:09:08Z,42.805,6.029,13.3006,4.60045,2470.544,2022-6-20T12:10:52Z
2022-06-20T10:12:11Z,42.805,6.029,13.3004,4.60043,2470.577,2022-6-20T12:13:55Z
2022-06-20T10:15:14Z,42.805,6.029,13.3006,4.60044,2470.577,2022-6-20T12:16:58Z
2022-06-20T10:18:17Z,42.805,6.029,13.3008,4.60050,2470.567,2022-6-20T12:20:01Z
2022-06-20T10:21:20Z,42.805,6.029,13.3005,4.60041,2470.577,2022-6-20T12:23:04Z
2022-06-20T10:24:24Z,42.805,6.029,13.3006,4.60042,2470.577,2022-6-20T12:26:07Z
2022-06-20T10:27:27Z,42.805,6.029,13.3006,4.60044,2470.591,2022-6-20T12:29:11Z
2022-06-20T10:30:30Z,42.805,6.029,13.3009,4.60045,2470.53,2022-6-20T12:32:14Z
2022-06-20T10:33:33Z,42.805,6.029,13.3009,4.60045,2470.6,2022-6-20T12:35:17Z
2022-06-20T10:36:36Z,42.805,6.029,13.3004,4.60041,2470.553,2022-6-20T12:38:20Z
2022-06-20T10:39:39Z,42.805,6.029,13.3004,4.60044,2470.567,2022-6-20T12:41:23Z
2022-06-20T10:42:42Z,42.805,6.029,13.3006,4.60044,2470.591,2022-6-20T12:44:26Z
2022-06-20T10:45:45Z,42.805,6.029,13.3007,4.60040,2470.6,2022-6-20T12:47:29Z
2022-06-20T10:48:49Z,42.805,6.029,13.3005,4.60048,2470.577,2022-6-20T12:50:32Z
2022-06-20T10:51:52Z,42.805,6.029,13.3008,4.60046,2470.577,2022-6-20T12:53:36Z
2022-06-20T10:54:55Z,42.805,6.029,13.3009,4.60046,2470.577,2022-6-20T12:56:39Z
2022-06-20T10:57:58Z,42.805,6.029,13.3006,4.60042,2470.553,2022-6-20T12:59:42Z
2022-06-20T11:01:01Z,42.805,6.029,13.3003,4.60040,2470.567,2022-6-20T13:02:45Z
2022-06-20T11:04:04Z,42.805,6.029,13.3006,4.60043,2470.553,2022-6-20T13:05:48Z
2022-06-20T11:07:07Z,42.805,6.029,13.3007,4.60043,2470.586,2022-6-20T13:08:51Z
2022-06-20T11:10:10Z,42.805,6.029,13.3008,4.60045,2470.577,2022-6-20T13:11:54Z
2022-06-20T11:13:14Z,42.805,6.029,13.3003,4.60044,2470.577,2022-6-20T13:14:57Z
2022-06-20T11:16:17Z,42.805,6.029,13.3004,4.60047,2470.553,2022-6-20T13:18:01Z
2022-06-20T11:19:20Z,42.805,6.029,13.3008,4.60044,2470.553,2022-6-20T13:21:04Z
2022-06-20T11:22:23Z,42.805,6.029,13.3004,4.60045,2470.553,2022-6-20T13:24:07Z
2022-06-20T11:25:26Z,42.805,6.029,13.3009,4.60044,2470.577,2022-6-20T13:27:10Z
2022-06-20T11:28:29Z,42.805,6.029,13.3004,4.60042,2470.53,2022-6-20T13:30:13Z
2022-06-20T11:31:32Z,42.805,6.029,13.3006,4.60043,2470.614,2022-6-20T13:33:16Z
2022-06-20T11:34:35Z,42.805,6.029,13.3006,4.60044,2470.614,2022-6-20T13:36:19Z
2022-06-20T11:37:39Z,42.805,6.029,13.3006,4.60040,2470.6,2022-6-20T13:39:22Z
2022-06-20T11:40:42Z,42.805,6.029,13.3008,4.60040,2470.6,2022-6-20T13:42:26Z
2022-06-20T11:43:45Z,42.805,6.029,13.3007,4.60040,2470.6,2022-6-20T13:45:29Z
2022-06-20T11:46:48Z,42.805,6.029,13.3007,4.60039,2470.577,2022-6-20T13:48:32Z
2022-06-20T11:49:51Z,42.805,6.029,13.3004,4.60044,2470.577,2022-6-20T13:51:35Z
2022-06-20T11:52:54Z,42.805,6.029,13.3004,4.60042,2470.553,2022-6-20T13:54:38Z
2022-06-20T11:55:57Z,42.805,6.029,13.3009,4.60040,2470.577,2022-6-20T13:57:41Z
2022-06-20T11:59:00Z,42.805,6.029,13.3003,4.60042,2470.6,2022-6-20T14:00:44Z
2022-06-20T12:02:04Z,42.805,6.029,13.3005,4.60039,2470.6,2022-6-20T14:03:47Z
2022-06-20T12:05:07Z,42.805,6.029,13.3005,4.60043,2470.553,2022-6-20T14:06:51Z
2022-06-20T12:08:10Z,42.805,6.029,13.3003,4.60040,2470.624,2022-6-20T14:09:54Z
2022-06-20T12:11:13Z,42.805,6.029,13.3007,4.60040,2470.577,2022-6-20T14:12:57Z
2022-06-20T12:14:16Z,42.805,6.029,13.3006,4.60039,2470.614,2022-6-20T14:16:00Z
2022-06-20T12:17:19Z,42.805,6.029,13.3005,4.60040,2470.577,2022-6-20T14:19:03Z
2022-06-20T12:20:22Z,42.805,6.029,13.3006,4.60040,2470.614,2022-6-20T14:22:06Z
2022-06-20T12:23:25Z,42.805,6.029,13.3006,4.60039,2470.577,2022-6-20T14:25:09Z
2022-06-20T12:26:29Z,42.805,6.029,13.3007,4.60044,2470.6,2022-6-20T14:28:13Z
2022-06-20T12:29:32Z,42.805,6.029,13.3003,4.60039,2470.563,2022-6-20T14:31:16Z
2022-06-20T12:32:35Z,42.805,6.029,13.3006,4.60039,2470.553,2022-6-20T14:34:19Z
2022-06-20T12:35:38Z,42.805,6.029,13.3005,4.60041,2470.591,2022-6-20T14:37:22Z
2022-06-20T12:38:41Z,42.805,6.029,13.3006,4.60041,2470.591,2022-6-20T14:40:25Z
2022-06-20T12:41:44Z,42.805,6.029,13.3009,4.60044,2470.563,2022-6-20T14:43:28Z
2022-06-20T12:44:47Z,42.805,6.029,13.3009,4.60041,2470.53,2022-6-20T14:46:31Z
2022-06-20T12:47:50Z,42.805,6.029,13.3008,4.60041,2470.577,2022-6-20T14:49:34Z
2022-06-20T12:50:54Z,42.805,6.029,13.3004,4.60045,2470.567,2022-6-20T14:52:38Z
2022-06-20T12:53:57Z,42.805,6.029,13.3007,4.60044,2470.553,2022-6-20T14:55:41Z
2022-06-20T12:57:00Z,42.805,6.029,13.3004,4.60042,2470.577,2022-6-20T14:58:44Z
2022-06-20T13:00:03Z,42.805,6.029,13.3008,4.60042,2470.577,2022-6-20T15:01:47Z
2022-06-20T13:03:06Z,42.805,6.029,13.3009,4.60039,2470.553,2022-6-20T15:04:50Z
2022-06-20T13:06:09Z,42.805,6.029,13.3014,4.60042,2470.6,2022-6-20T15:07:53Z
2022-06-20T13:09:12Z,42.805,6.029,13.3004,4.60042,2470.553,2022-6-20T15:10:56Z
2022-06-20T13:12:15Z,42.805,6.029,13.3012,4.60042,2470.577,2022-6-20T15:13:59Z
2022-06-20T13:15:19Z,42.805,6.029,13.3009,4.60042,2470.567,2022-6-20T15:17:03Z
2022-06-20T13:18:22Z,42.805,6.029,13.3006,4.60043,2470.6,2022-6-20T15:20:06Z
2022-06-20T13:21:25Z,42.805,6.029,13.3006,4.60039,2470.577,2022-6-20T15:23:09Z
2022-06-20T13:24:28Z,42.805,6.029,13.3009,4.60039,2470.577,2022-6-20T15:26:12Z
2022-06-20T13:27:31Z,42.805,6.029,13.3014,4.60039,2470.591,2022-6-20T15:29:15Z
2022-06-20T13:30:34Z,42.805,6.029,13.3002,4.60040,2470.567,2022-6-20T15:32:18Z
2022-06-20T13:33:37Z,42.805,6.029,13.3005,4.60040,2470.553,2022-6-20T15:35:21Z
2022-06-20T13:36:41Z,42.805,6.029,13.3008,4.60039,2470.567,2022-6-20T15:38:24Z
2022-06-20T13:39:44Z,42.805,6.029,13.3010,4.60041,2470.567,2022-6-20T15:41:28Z
2022-06-20T13:42:47Z,42.805,6.029,13.3013,4.60042,2470.591,2022-6-20T15:44:31Z
2022-06-20T13:45:50Z,42.805,6.029,13.3011,4.60039,2470.6,2022-6-20T15:47:34Z
2022-06-20T13:48:53Z,42.805,6.029,13.3006,4.60046,2470.567,2022-6-20T15:50:37Z
2022-06-20T13:51:56Z,42.805,6.029,13.3004,4.60040,2470.567,2022-6-20T15:53:40Z
2022-06-20T13:54:59Z,42.805,6.029,13.3010,4.60039,2470.516,2022-6-20T15:56:43Z
2022-06-20T13:58:02Z,42.805,6.029,13.3006,4.60039,2470.553,2022-6-20T15:59:46Z
2022-06-20T14:01:06Z,42.805,6.029,13.3011,4.60046,2470.553,2022-6-20T16:02:49Z
2022-06-20T14:04:09Z,42.805,6.029,13.3011,4.60039,2470.544,2022-6-20T16:05:53Z
2022-06-20T14:07:12Z,42.805,6.029,13.3008,4.60039,2470.53,2022-6-20T16:08:56Z
2022-06-20T14:10:15Z,42.805,6.029,13.3006,4.60040,2470.591,2022-6-20T16:11:59Z
2022-06-20T14:13:18Z,42.805,6.029,13.3008,4.60040,2470.553,2022-6-20T16:15:02Z
2022-06-20T14:16:21Z,42.805,6.029,13.3009,4.60039,2470.577,2022-6-20T16:18:05Z
2022-06-20T14:19:24Z,42.805,6.029,13.3011,4.60042,2470.577,2022-6-20T16:21:08Z
2022-06-20T14:22:27Z,42.805,6.029,13.3009,4.60039,2470.53,2022-6-20T16:24:11Z
2022-06-20T14:25:31Z,42.805,6.029,13.3009,4.60040,2470.577,2022-6-20T16:27:14Z
2022-06-20T14:28:34Z,42.805,6.029,13.3009,4.60042,2470.553,2022-6-20T16:30:18Z
2022-06-20T14:31:37Z,42.805,6.029,13.3010,4.60044,2470.553,2022-6-20T16:33:21Z
2022-06-20T14:34:40Z,42.805,6.029,13.3011,4.60039,2470.586,2022-6-20T16:36:24Z
2022-06-20T14:37:43Z,42.805,6.029,13.3007,4.60040,2470.591,2022-6-20T16:39:27Z
2022-06-20T14:40:46Z,42.805,6.029,13.3006,4.60039,2470.567,2022-6-20T16:42:30Z
2022-06-20T14:43:49Z,42.805,6.029,13.3009,4.60039,2470.567,2022-6-20T16:45:33Z
2022-06-20T14:46:52Z,42.805,6.029,13.3007,4.60041,2470.567,2022-6-20T16:48:36Z
2022-06-20T14:49:56Z,42.805,6.029,13.3009,4.60040,2470.53,2022-6-20T16:51:39Z
2022-06-20T14:52:59Z,42.805,6.029,13.3007,4.60039,2470.553,2022-6-20T16:54:43Z
2022-06-20T14:56:02Z,42.805,6.029,13.3006,4.60040,2470.553,2022-6-20T16:57:46Z
2022-06-20T14:59:05Z,42.805,6.029,13.3009,4.60041,2470.567,2022-6-20T17:00:49Z
2022-06-20T15:02:08Z,42.805,6.029,13.3009,4.60040,2470.53,2022-6-20T17:03:52Z
2022-06-20T15:05:11Z,42.805,6.029,13.3010,4.60041,2470.53,2022-6-20T17:06:55Z
2022-06-20T15:08:14Z,42.805,6.029,13.3009,4.60039,2470.53,2022-6-20T17:09:58Z
2022-06-20T15:11:17Z,42.805,6.029,13.3007,4.60042,2470.53,2022-6-20T17:13:01Z
2022-06-20T15:14:20Z,42.805,6.029,13.3009,4.60040,2470.53,2022-6-20T17:16:04Z
2022-06-20T15:17:24Z,42.805,6.029,13.3005,4.60040,2470.516,2022-6-20T17:19:08Z
2022-06-20T15:20:27Z,42.805,6.029,13.3010,4.60039,2470.53,2022-6-20T17:22:11Z
2022-06-20T15:23:30Z,42.805,6.029,13.3008,4.60040,2470.553,2022-6-20T17:25:14Z
2022-06-20T15:26:33Z,42.805,6.029,13.3006,4.60042,2470.53,2022-6-20T17:28:17Z
2022-06-20T15:29:36Z,42.805,6.029,13.3009,4.60041,2470.53,2022-6-20T17:31:20Z
2022-06-20T15:32:39Z,42.805,6.029,13.3007,4.60043,2470.539,2022-6-20T17:34:23Z
2022-06-20T15:35:42Z,42.805,6.029,13.3012,4.60042,2470.553,2022-6-20T17:37:26Z